TimeCDT,TemperatureF,Dew PointF,Humidity,Sea Level PressureIn,VisibilityMPH,Wind Direction,Wind SpeedMPH,Gust SpeedMPH,PrecipitationIn,Events,Conditions,WindDirDegrees,DateUTC
12:52 AM,55.0,48.9,80,29.54,10.0,SE,4.6,-,N/A,,Clear,130,2013-09-30 05:52:00
1:52 AM,51.1,46.9,86,29.57,10.0,NNW,4.6,-,N/A,,Clear,340,2013-09-30 06:52:00
2:52 AM,51.1,46.9,86,29.57,10.0,North,4.6,-,N/A,,Clear,10,2013-09-30 07:52:00
3:52 AM,46.9,44.1,90,29.55,10.0,Calm,Calm,-,N/A,,Clear,0,2013-09-30 08:52:00
4:52 AM,51.1,46.9,86,29.57,10.0,NNW,11.5,-,N/A,,Clear,330,2013-09-30 09:52:00
5:52 AM,48.9,46.0,90,29.58,10.0,North,8.1,-,N/A,,Clear,350,2013-09-30 10:52:00
6:52 AM,46.9,45.0,93,29.60,10.0,NNW,3.5,-,N/A,,Clear,340,2013-09-30 11:52:00
7:52 AM,44.1,43.0,96,29.62,10.0,Calm,Calm,-,N/A,,Clear,0,2013-09-30 12:52:00
8:52 AM,52.0,48.9,89,29.59,10.0,North,3.5,-,N/A,,Clear,350,2013-09-30 13:52:00
9:52 AM,57.0,48.9,74,29.59,10.0,Calm,Calm,-,N/A,,Clear,0,2013-09-30 14:52:00
10:52 AM,61.0,48.0,62,29.58,10.0,South,4.6,-,N/A,,Clear,190,2013-09-30 15:52:00
11:52 AM,66.0,46.0,48,29.56,10.0,SSE,6.9,-,N/A,,Clear,150,2013-09-30 16:52:00
12:52 PM,70.0,44.1,39,29.53,10.0,SSE,9.2,-,N/A,,Clear,160,2013-09-30 17:52:00
1:52 PM,73.0,45.0,37,29.52,10.0,SSE,10.4,-,N/A,,Clear,160,2013-09-30 18:52:00
2:52 PM,75.9,43.0,31,29.48,10.0,South,8.1,-,N/A,,Clear,180,2013-09-30 19:52:00
3:52 PM,75.9,43.0,31,29.47,10.0,South,4.6,-,N/A,,Clear,170,2013-09-30 20:52:00
4:52 PM,79.0,45.0,30,29.45,10.0,South,9.2,-,N/A,,Clear,190,2013-09-30 21:52:00
5:52 PM,78.1,45.0,31,29.44,10.0,South,3.5,-,N/A,,Clear,180,2013-09-30 22:52:00
6:52 PM,72.0,50.0,46,29.45,10.0,Calm,Calm,-,N/A,,Clear,0,2013-09-30 23:52:00
7:52 PM,63.0,48.0,58,29.48,10.0,Calm,Calm,-,N/A,,Clear,0,2013-10-01 00:52:00
8:52 PM,64.9,50.0,58,29.54,10.0,NW,18.4,31.1,N/A,,Partly Cloudy,320,2013-10-01 01:52:00
9:00 PM,64.4,48.2,56,29.57,10.0,NW,17.3,26.5,N/A,,Scattered Clouds,320,2013-10-01 02:00:00
9:52 PM,61.0,46.9,60,29.60,10.0,NNW,21.9,34.5,N/A,,Clear,330,2013-10-01 02:52:00
10:52 PM,55.9,46.9,72,29.64,10.0,NNW,15.0,-,0.00,,Mostly Cloudy,330,2013-10-01 03:52:00
11:52 PM,54.0,46.0,75,29.66,10.0,NW,13.8,-,N/A,,Clear,320,2013-10-01 04:52:00